Location: Unspecified
(48.2082°N, 0.0000°E)
Time: 23:55:20
(UTC+00:00)

Transit 2A Rocket - All Passes

Search period start: 20 June 2019 00:00
Search period end: 30 June 2019 00:00
Orbit: 586 x 917 km, 66.7° (Epoch: 20 June)

Date Brightness Start Highest point End Pass type
(mag) Time Alt. Az. Time Alt. Az. Time Alt. Az.
20 Jun - 10:13:27 10° S 10:19:16 47° ESE 10:24:57 10° NE daylight
20 Jun - 11:56:17 10° WSW 12:02:03 42° NW 12:07:36 10° NNE daylight
20 Jun - 13:42:38 10° WNW 13:46:13 16° NNW 13:49:41 10° NNE daylight
20 Jun - 15:29:24 10° NNW 15:31:21 12° N 15:33:14 10° NNE daylight
20 Jun - 17:12:04 10° NNW 17:16:13 21° NNE 17:20:06 10° E daylight
20 Jun - 18:54:23 10° NNW 18:59:47 78° NE 19:04:39 10° SE daylight
20 Jun - 20:38:21 10° WNW 20:41:36 17° WSW 20:44:40 10° SW visible
21 Jun - 09:31:43 10° S 09:36:57 31° ESE 09:42:05 10° NE daylight
21 Jun - 11:13:18 10° SW 11:19:20 60° NW 11:25:10 10° NNE daylight
21 Jun - 12:58:50 10° WNW 13:03:08 20° NNW 13:07:17 10° NNE daylight
21 Jun - 14:46:12 10° NNW 14:48:05 11° N 14:49:56 10° NNE daylight
21 Jun - 16:29:41 10° NNW 16:33:10 17° NNE 16:36:28 10° ENE daylight
21 Jun - 18:11:52 10° NNW 18:17:09 50° NE 18:21:56 10° ESE daylight
21 Jun - 19:55:02 10° NW 19:59:28 28° WSW 20:03:32 10° SSW daylight
22 Jun - 08:50:32 10° SSE 08:54:44 20° ESE 08:58:53 10° ENE daylight
22 Jun - 10:30:36 10° SW 10:36:44 88° NW 10:42:40 10° NE daylight
22 Jun - 12:15:12 10° W 12:20:08 25° NW 12:24:54 10° NNE daylight
22 Jun - 14:02:31 10° NW 14:04:51 12° N 14:07:08 10° NNE daylight
22 Jun - 15:47:15 10° NNW 15:50:02 14° NNE 15:52:42 10° NE daylight
22 Jun - 17:29:26 10° NNW 17:34:24 34° NE 17:38:56 10° ESE daylight
22 Jun - 19:12:08 10° NW 19:17:12 47° WSW 19:21:46 10° S daylight
23 Jun - 08:10:35 10° ESE 08:12:37 12° ESE 08:14:38 10° E daylight
23 Jun - 09:48:13 10° SSW 09:54:14 63° ESE 10:00:05 10° NE daylight
23 Jun - 11:31:47 10° WSW 11:37:16 34° NW 11:42:32 10° NNE daylight
23 Jun - 13:18:38 10° NW 13:21:39 14° NNW 13:24:36 10° NNE daylight
23 Jun - 15:04:42 10° NNW 15:06:50 12° N 15:08:54 10° NNE daylight
23 Jun - 16:47:03 10° NNW 16:51:32 25° NE 16:55:40 10° E daylight
23 Jun - 18:29:27 10° NW 18:34:48 78° WSW 18:39:35 10° SSE daylight
23 Jun - 20:14:41 10° W 20:16:18 11° W 20:17:52 10° WSW daylight
24 Jun - 09:06:12 10° S 09:11:51 41° ESE 09:17:22 10° NE daylight
24 Jun - 10:48:37 10° WSW 10:54:30 47° NW 11:00:08 10° NNE daylight
24 Jun - 12:34:44 10° WNW 12:38:31 17° NNW 12:42:11 10° NNE daylight
24 Jun - 14:21:50 10° NNW 14:23:36 11° N 14:25:19 10° NNE daylight
24 Jun - 16:04:40 10° NNW 16:08:32 19° NNE 16:12:11 10° ENE daylight
24 Jun - 17:46:54 10° NNW 17:52:15 67° NE 17:57:04 10° SE daylight
24 Jun - 19:30:33 10° WNW 19:34:14 20° WSW 19:37:41 10° SSW daylight
25 Jun - 08:24:37 10° SSE 08:29:34 26° ESE 08:34:25 10° NE daylight
25 Jun - 10:05:44 10° SW 10:11:49 69° NW 10:17:40 10° NNE daylight
25 Jun - 11:50:59 10° W 11:55:29 21° NNW 11:59:48 10° NNE daylight
25 Jun - 13:38:26 10° NNW 13:40:21 12° N 13:42:13 10° NNE daylight
25 Jun - 15:22:17 10° NNW 15:25:28 15° NNE 15:28:30 10° ENE daylight
25 Jun - 17:04:26 10° NNW 17:09:35 44° NE 17:14:15 10° ESE daylight
25 Jun - 18:47:24 10° NW 18:52:03 33° WSW 18:56:18 10° S daylight
26 Jun - 07:43:43 10° SE 07:47:23 17° ESE 07:50:59 10° ENE daylight
26 Jun - 09:23:09 10° SSW 09:29:16 82° ESE 09:35:09 10° NE daylight
26 Jun - 11:07:25 10° W 11:12:32 28° NW 11:17:27 10° NNE daylight
26 Jun - 12:54:38 10° NW 12:57:08 13° NNW 12:59:33 10° NNE daylight
26 Jun - 14:39:50 10° NNW 14:42:18 13° NNE 14:44:41 10° NE daylight
26 Jun - 16:22:01 10° NNW 16:26:47 30° NE 16:31:09 10° E daylight
26 Jun - 18:04:36 10° NW 18:09:44 56° WSW 18:14:23 10° SSE daylight
27 Jun - 08:40:53 10° SSW 08:46:48 54° ESE 08:52:32 10° NE daylight
27 Jun - 10:24:04 10° WSW 10:29:41 38° NW 10:35:04 10° NNE daylight
27 Jun - 12:10:42 10° NW 12:13:57 15° NNW 12:17:05 10° NNE daylight
27 Jun - 13:57:14 10° NNW 13:59:05 12° N 14:00:54 10° NNE daylight
27 Jun - 15:39:38 10° NNW 15:43:52 22° NNE 15:47:49 10° E daylight
27 Jun - 17:21:58 10° NW 17:27:18 90° E 17:32:04 10° SSE daylight
27 Jun - 19:06:26 10° WNW 19:08:57 14° WSW 19:11:21 10° SW daylight
28 Jun - 07:59:00 10° S 08:04:26 35° ESE 08:09:45 10° NE daylight
28 Jun - 09:41:00 10° SW 09:46:57 53° NW 09:52:39 10° NNE daylight
28 Jun - 11:26:51 10° WNW 11:30:51 18° NNW 11:34:41 10° NNE daylight
28 Jun - 13:14:13 10° NNW 13:15:50 11° N 13:17:27 10° NNE daylight
28 Jun - 14:57:16 10° NNW 15:00:51 17° NNE 15:04:14 10° ENE daylight
28 Jun - 16:39:26 10° NNW 16:44:42 57° NE 16:49:27 10° SE daylight
28 Jun - 18:22:49 10° WNW 18:26:50 24° WSW 18:30:35 10° SSW daylight
29 Jun - 07:17:36 10° SSE 07:22:11 23° ESE 07:26:40 10° ENE daylight
29 Jun - 08:58:12 10° SW 09:04:19 78° NW 09:10:10 10° NNE daylight
29 Jun - 10:43:08 10° W 10:47:50 23° NNW 10:52:20 10° NNE daylight
29 Jun - 12:30:37 10° NNW 12:32:36 12° N 12:34:33 10° NNE daylight
29 Jun - 14:14:53 10° NNW 14:17:45 14° NNE 14:20:29 10° NE daylight
29 Jun - 15:57:00 10° NNW 16:01:59 38° NE 16:06:32 10° ESE daylight
29 Jun - 17:39:49 10° NW 17:44:37 39° WSW 17:49:00 10° S daylight
